TimeEDT,TemperatureF,Dew PointF,Humidity,Sea Level PressureIn,VisibilityMPH,Wind Direction,Wind SpeedMPH,Gust SpeedMPH,PrecipitationIn,Events,Conditions,WindDirDegrees,DateUTC
12:15 AM,32.5,14.5,48,30.12,10.0,Calm,Calm,-,N/A,,Clear,0,2013-03-15 04:15:00
12:35 AM,33.3,14.0,45,30.12,10.0,SSE,3.5,-,N/A,,Clear,160,2013-03-15 04:35:00
12:55 AM,32.5,14.2,47,30.12,10.0,South,4.6,-,N/A,,Clear,180,2013-03-15 04:55:00
1:15 AM,34.3,13.3,42,30.11,10.0,SSW,3.5,-,N/A,,Clear,200,2013-03-15 05:15:00
1:35 AM,34.3,13.1,42,30.11,10.0,WSW,3.5,-,N/A,,Clear,240,2013-03-15 05:35:00
1:55 AM,34.3,13.5,42,30.11,10.0,WSW,5.8,-,N/A,,Clear,250,2013-03-15 05:55:00
2:15 AM,34.9,13.1,41,30.11,10.0,Calm,Calm,-,N/A,,Clear,0,2013-03-15 06:15:00
2:35 AM,32.0,14.9,49,30.10,10.0,Calm,Calm,-,N/A,,Clear,0,2013-03-15 06:35:00
2:55 AM,31.5,14.9,50,30.10,10.0,Calm,Calm,-,N/A,,Clear,0,2013-03-15 06:55:00
3:15 AM,30.9,15.3,52,30.09,10.0,West,3.5,-,N/A,,Clear,260,2013-03-15 07:15:00
3:35 AM,31.5,15.4,52,30.09,10.0,WSW,4.6,-,N/A,,Clear,250,2013-03-15 07:35:00
3:55 AM,32.0,14.9,49,30.09,10.0,West,3.5,-,N/A,,Clear,270,2013-03-15 07:55:00
4:15 AM,29.7,16.3,58,30.08,10.0,Calm,Calm,-,N/A,,Clear,0,2013-03-15 08:15:00
4:35 AM,28.4,17.4,63,30.08,10.0,Calm,Calm,-,N/A,,Clear,0,2013-03-15 08:35:00
4:55 AM,28.0,17.4,64,30.08,10.0,Calm,Calm,-,N/A,,Clear,0,2013-03-15 08:55:00
5:15 AM,27.5,17.6,66,30.08,10.0,Calm,Calm,-,N/A,,Clear,0,2013-03-15 09:15:00
5:35 AM,27.7,17.6,66,30.08,10.0,Calm,Calm,-,N/A,,Clear,0,2013-03-15 09:35:00
5:55 AM,27.1,17.4,67,30.08,10.0,Calm,Calm,-,N/A,,Clear,0,2013-03-15 09:55:00
6:15 AM,28.2,18.0,65,30.08,10.0,Calm,Calm,-,N/A,,Clear,0,2013-03-15 10:15:00
6:35 AM,28.9,16.7,60,30.07,10.0,SSW,3.5,-,N/A,,Clear,210,2013-03-15 10:35:00
6:55 AM,30.2,16.5,57,30.08,10.0,Calm,Calm,-,N/A,,Clear,0,2013-03-15 10:55:00
7:15 AM,28.8,16.5,60,30.07,10.0,Calm,Calm,-,N/A,,Clear,0,2013-03-15 11:15:00
7:35 AM,28.0,16.7,62,30.07,10.0,SW,3.5,-,N/A,,Clear,220,2013-03-15 11:35:00
7:55 AM,29.8,16.7,58,30.06,10.0,Calm,Calm,-,N/A,,Clear,0,2013-03-15 11:55:00
8:15 AM,29.5,17.4,61,30.06,10.0,SSW,3.5,-,N/A,,Clear,210,2013-03-15 12:15:00
8:35 AM,33.1,19.0,56,30.05,10.0,SSW,5.8,-,N/A,,Clear,200,2013-03-15 12:35:00
8:55 AM,35.4,18.9,51,30.05,10.0,SSW,8.1,-,N/A,,Clear,210,2013-03-15 12:55:00
9:15 AM,37.8,18.5,46,30.04,10.0,SSW,9.2,-,N/A,,Clear,200,2013-03-15 13:15:00
9:35 AM,39.7,18.1,42,30.05,10.0,SSW,10.4,-,N/A,,Clear,210,2013-03-15 13:35:00
9:55 AM,41.5,18.1,39,30.04,10.0,SSW,8.1,-,N/A,,Clear,210,2013-03-15 13:55:00
10:15 AM,42.6,17.6,37,30.03,10.0,SW,13.8,17.3,N/A,,Clear,220,2013-03-15 14:15:00
10:35 AM,43.9,17.6,35,30.01,10.0,South,12.7,17.3,N/A,,Clear,190,2013-03-15 14:35:00
10:55 AM,45.5,19.2,35,30.01,10.0,SSW,15.0,-,N/A,,Clear,200,2013-03-15 14:55:00
11:55 AM,48.9,21.7,34,29.99,10.0,SSW,13.8,-,N/A,,Clear,200,2013-03-15 15:55:00
12:15 PM,49.3,22.3,35,29.98,10.0,SSW,13.8,20.7,N/A,,Clear,200,2013-03-15 16:15:00
12:35 PM,50.9,23.5,34,29.96,10.0,SW,13.8,19.6,N/A,,Clear,220,2013-03-15 16:35:00
12:55 PM,52.3,25.2,35,29.95,10.0,SSW,10.4,19.6,N/A,,Clear,200,2013-03-15 16:55:00
1:15 PM,53.6,26.4,35,29.94,10.0,SW,16.1,21.9,N/A,,Clear,230,2013-03-15 17:15:00
1:35 PM,55.0,27.5,35,29.93,10.0,SW,19.6,23.0,N/A,,Clear,220,2013-03-15 17:35:00
1:55 PM,55.9,27.9,34,29.92,10.0,SW,17.3,27.6,N/A,,Clear,220,2013-03-15 17:55:00
2:15 PM,56.1,28.0,34,29.91,10.0,SW,16.1,26.5,N/A,,Clear,230,2013-03-15 18:15:00
2:35 PM,57.6,28.6,33,29.90,10.0,SSW,13.8,21.9,N/A,,Mostly Cloudy,210,2013-03-15 18:35:00
2:55 PM,58.1,29.3,33,29.88,10.0,SW,11.5,21.9,N/A,,Scattered Clouds,220,2013-03-15 18:55:00
3:15 PM,58.5,30.0,34,29.87,10.0,SW,13.8,-,N/A,,Scattered Clouds,230,2013-03-15 19:15:00
3:35 PM,58.5,30.2,34,29.85,10.0,SW,13.8,23.0,N/A,,Clear,220,2013-03-15 19:35:00
3:55 PM,59.4,30.6,34,29.84,10.0,SW,11.5,-,N/A,,Clear,230,2013-03-15 19:55:00
4:15 PM,59.9,30.6,33,29.84,10.0,SW,13.8,20.7,N/A,,Clear,220,2013-03-15 20:15:00
4:35 PM,60.3,30.4,32,29.83,10.0,SW,17.3,-,N/A,,Clear,230,2013-03-15 20:35:00
4:55 PM,60.3,30.2,32,29.82,10.0,SW,11.5,18.4,N/A,,Clear,220,2013-03-15 20:55:00
5:15 PM,60.3,30.2,32,29.82,10.0,SW,11.5,-,N/A,,Clear,220,2013-03-15 21:15:00
5:35 PM,60.3,30.6,33,29.82,10.0,SW,10.4,16.1,N/A,,Clear,220,2013-03-15 21:35:00
5:55 PM,60.8,30.6,32,29.81,10.0,SW,12.7,-,N/A,,Clear,220,2013-03-15 21:55:00
6:15 PM,60.8,31.1,33,29.81,10.0,SW,9.2,-,N/A,,Clear,230,2013-03-15 22:15:00
6:35 PM,60.8,31.1,33,29.81,10.0,SW,6.9,16.1,N/A,,Clear,230,2013-03-15 22:35:00
6:55 PM,59.5,31.1,34,29.81,10.0,SW,8.1,-,N/A,,Clear,230,2013-03-15 22:55:00
7:15 PM,56.5,31.1,38,29.82,10.0,SW,4.6,-,N/A,,Clear,230,2013-03-15 23:15:00
7:35 PM,55.6,31.1,39,29.82,10.0,Calm,Calm,-,N/A,,Clear,0,2013-03-15 23:35:00
7:55 PM,53.8,31.1,42,29.83,10.0,SW,4.6,-,N/A,,Scattered Clouds,220,2013-03-15 23:55:00
8:15 PM,53.6,30.7,42,29.83,10.0,Calm,Calm,-,N/A,,Scattered Clouds,0,2013-03-16 00:15:00
8:35 PM,53.1,30.9,43,29.83,10.0,Calm,Calm,-,N/A,,Clear,0,2013-03-16 00:35:00
8:55 PM,50.7,31.5,48,29.83,10.0,WSW,3.5,-,N/A,,Clear,250,2013-03-16 00:55:00
9:15 PM,47.1,31.6,55,29.83,10.0,WNW,3.5,-,N/A,,Clear,290,2013-03-16 01:15:00
9:35 PM,45.1,32.0,60,29.83,10.0,West,3.5,-,N/A,,Clear,260,2013-03-16 01:35:00
9:55 PM,46.2,31.8,57,29.83,10.0,Calm,Calm,-,N/A,,Clear,0,2013-03-16 01:55:00
10:15 PM,47.3,31.8,55,29.84,10.0,South,4.6,-,N/A,,Clear,170,2013-03-16 02:15:00
10:55 PM,47.1,31.1,54,29.83,10.0,SSW,3.5,-,N/A,,Clear,200,2013-03-16 02:55:00
11:15 PM,47.1,30.9,53,29.83,10.0,Calm,Calm,-,N/A,,Clear,0,2013-03-16 03:15:00
11:35 PM,47.3,31.1,53,29.83,10.0,Calm,Calm,-,N/A,,Clear,0,2013-03-16 03:35:00
11:55 PM,47.5,30.9,53,29.83,10.0,Calm,Calm,-,N/A,,Clear,0,2013-03-16 03:55:00